Location: Newark
(35.8833°N, 14.5000°E)
Time: 23:10:56
(UTC+00:00)

UNISAT 6 - Pass Details

Date: 26 May 2019
Orbit: 606 x 690 km, 97.8° (Epoch: 19 June)

Event Time Altitude Azimuth Distance (km) Brightness Sun altitude
Rises 19:42:27 0° 17° (NNE) 2,906 ? -16.4°
Reaches altitude 10° 19:44:42 10° 21° (NNE) 1,986 ? -16.7°
Maximum altitude 19:48:56 56° 100° (E) 732 ? -17.4°
Enters shadow 19:50:39 32° 163° (SSE) 1,046 ? -17.6°
